User: anonymous   Login
Location: Lussas
(44.6119°N, 4.4726°E)
Time: 18:00:39
(UTC+00:00)
Language:

H-2A R/B - Orbit

View from above orbital plane
View from above orbital plane
View from above satellite
View from above satellite

Ground track
Ground track

The orbit data is extracted from the following two-line orbital elements,

1 42073U 17015B   21097.66842904 0.00002163  00000-0  78196-4 0    08
2 42073  97.0143 118.4615 0003663 150.4341 209.4158 15.28482624    05
Epoch (UTC): 07 April 2021 16:02:32
Eccentricity: 0.0003663
inclination: 97.0143°
perigee height: 478 km
apogee height: 483 km
right ascension of ascending node: 118.4615°
argument of perigee: 150.4341°
revolutions per day: 15.28482624
mean anomaly at epoch: 209.4158°
orbit number at epoch: 0

The dashed part of the orbit path shows where the satellite is in the earth's shadow,  

DLR